sat.trackr.live / text

‹ back to catalog

PE2_FLT2 (TYVAK-0262)

NORAD 59104 · 2024-043G

PAYLOAD ACTIVE UNKNOWN

§ Identity

Operator
Country
US
Launch date
2024-03-04
Launch site
AFWTR
Launch vehicle
Mass (kg)
RCS (m²)

External: N2YO · Heavens-Above · Gunter

§ Orbital elements

Epoch: 2026-05-24T22:17:41.559072Z

Period
96.19 min
Inclination
97.8373°
Eccentricity
0.0007549
Mean motion
14.97089182 rev/d
Perigee alt
570.6 km
Apogee alt
581.1 km
Semi-major
6,954.0 km
B*
1.6386e-4
RAAN
275.5458°
Arg perigee
114.5995°
Mean anomaly
245.6013°
Rev number
12,117

§ Raw data

PE2_FLT2  (TYVAK-0262)1 59104U 24043G   26144.92895323  .00001831  00000+0  16386-3 0  99992 59104  97.8373 275.5458 0007549 114.5995 245.6013 14.97089182121175

JSON: /api/v1/satellites/59104 · /tle

For live sub-satellite position, see the globe view (requires WebGL).

§ Visibility from observer

Set your observer location to see the next 7 days of passes ≥ 10°. The values pass through the URL so the page stays shareable.

No JS? Fill the form by hand. The geolocation button needs JavaScript.

§ Radio — SatNOGS DB

ModeDescriptionDownlinkUplink
QPSK Mode S - QPSK - Payload Transmitter 2.492 GHz
GMSK Mode U - GMSK19k6 401.340 MHz
FM Mode X - Payload Data 8.320 GHz

3 transmitters · refreshed weekly from db.satnogs.org